Location: Bruderhein
(53.8035°N, 112.9265°W)
Time: 06:53:31
(UTC+00:00)

First-Move - Pass Details

Date: 03 May 2024
Orbit: 538 x 600 km, 97.7° (Epoch: 19 May)

Event Time Altitude Azimuth Distance (km) Brightness Sun altitude
Rises 10:45:29 0° 17° (NNE) 2,877 ? -8.6°
Reaches altitude 10° 10:47:44 10° 23° (NNE) 1,967 ? -8.4°
Maximum altitude 10:51:54 50° 100° (E) 779 ? -7.9°
Drops below altitude 10° 10:56:00 10° 176° (S) 1,935 ? -7.5°
Sets 10:58:12 0° 181° (S) 2,825 ? -7.2°
